Regional Weather Roundup
Issued by NWS

Home | Current Version | Previous Version | Text Only | Print | Product List | Glossary On
Versions: 1 2 3 4 5 6 7 8 9 10 11 12 13 14 15 16 17 18 19 20 21 22 23 24 25 26 27
000
ASUS46 KPQR 230210
RWROR

OREGON REGIONAL WEATHER ROUNDUP
NATIONAL WEATHER SERVICE PORTLAND OR
700 PM PDT TUE AUG 22 2017

NOTE: "FAIR" INDICATES FEW OR NO CLOUDS BELOW 12,000 FEET WITH
NO SIGNIFICANT WEATHER AND/OR OBSTRUCTIONS TO VISIBILITY.

ORZ001>013-230300-
NORTHWEST OREGON


CITY           SKY/WX    TMP DP  RH WIND       PRES   REMARKS
ASTORIA        CLOUDY    61  58  90 W8        30.06F
NEWPORT        CLOUDY    57  55  94 NW3       30.11R FOG
PORTLAND       PTSUNNY   83  59  44 VRB6      29.96S
VANCOUVER WA   SUNNY     84  60  44 N8        29.96R
SCAPPOOSE      SUNNY     82  55  39 NW6       29.96S
HILLSBORO      SUNNY     84  60  44 NE7       29.96R
AURORA         SUNNY     84  55  37 MISG      29.97S
MCMINNVILLE    SUNNY     81  57  43 SW13      29.97S
SALEM          SUNNY     84  54  35 W8        29.96S
CORVALLIS      SUNNY     77  57  50 NW7       30.01S
EUGENE         SUNNY     82  61  48 SW10      29.99R
$$

ORZ021-028-230300-
SOUTHWEST OREGON


CITY           SKY/WX    TMP DP  RH WIND       PRES   REMARKS
NORTH BEND     SUNNY     61  56  83 NW13      30.09S
BROOKINGS      CLOUDY    56  53  90 CALM      30.05F FOG
ROSEBURG       SUNNY     84  59  42 NW7       29.99S
SEXTON SUMMIT  CLOUDY    70  54  56 N7        30.13F HAZE
GRANTS PASS    FAIR      88  57  35 N8        30.00F
MEDFORD        CLOUDY    88  56  33 SW5       29.96F SMOKE
$$

ORZ014>016-041-230300-
COLUMBIA GORGE


CITY           SKY/WX    TMP DP  RH WIND       PRES   REMARKS
TROUTDALE      SUNNY     85  58  39 VRB6      29.95S
HOOD RIVER     CLEAR     82  54  36 NW5       29.93S
THE DALLES     CLEAR     86  58  38 NW15G23   29.88S
$$

ORZ029>031-041-044-049-050-061>064-502-503-505>511-230300-
EASTERN OREGON


CITY           SKY/WX    TMP DP  RH WIND       PRES   REMARKS
MADRAS         PTCLDY    82  48  30 MISG      30.01R
REDMOND        MOCLDY    85  35  16 N8        30.02S HAZE
BEND           PTCLDY    84  39  20 N13       30.06R HAZE
PRINEVILLE     CLEAR     84  39  20 NW10      30.04S HAZE
KLAMATH FALLS  CLOUDY    79  51  37 NW10      30.10R SMOKE
LAKEVIEW       CLOUDY   N/A N/A N/A NW12      30.13F
HERMISTON      CLEAR     87  48  25 S5        29.86F
PENDLETON      CLEAR     83  43  24 W5        29.91F
JOHN DAY       PTCLDY    90  37  15 CALM      30.01S
MEACHAM        CLEAR     78  33  19 CALM      30.07S
LA GRANDE      NOT AVBL
BAKER CITY     PTCLDY    74  54  49 E7        30.00F
BURNS          MOCLDY    86  36  16 SE6       30.03F
ROME             N/A     90  34  13 SE15      30.01F
ONTARIO        CLEAR     88  55  32 CALM      29.93F
$$




USA.gov is the U.S. government's official web portal to all federal, state and local government web resources and services.